#timestamp,LO_Frequency,Hit,StdDev 
1567846815.2,286047000.6,N
1567846835.1,286047000.5,N
1567846836.0,286047000.5,N
1567846855.8,286047000.5,N
1567846875.6,286047000.3,N
1567846895.5,286047000.3,N
1567846915.3,286047001.2,N
1567846935.2,286047000.6,N
1567846955.9,286047000.5,N
1567846975.7,286047000.9,N
1567846995.6,286047000.4,N
1567847015.4,286047000.6,N
1567847035.2,286046999.9,N
1567847055.1,286047001.1,N
1567847056.0,286047001.1,N
1567847075.8,286047000.6,N
1567847095.7,286047000.4,N
1567847115.5,286047000.5,N
1567847135.3,286046998.4,N
1567847155.2,286046999.0,N
1567847175.0,286046998.5,N
1567847175.9,286046998.5,N
1567847195.8,286046998.5,N
1567847215.6,286047001.1,N
1567847235.4,286047000.4,N
1567847255.3,286047000.9,N
1567847275.1,286046998.5,N
1567847295.8,286046998.9,N
1567847315.7,286047000.9,N
1567847335.5,286047000.4,N
1567847355.4,286046999.7,N
1567847375.2,286046999.8,N
1567847395.0,286047002.2,N
1567847395.9,286047002.2,N
1567847415.8,286046999.7,N
1567847435.6,286047002.7,N
1567847455.5,286047002.6,N
1567847475.3,286047002.2,N
1567847495.1,286047002.2,N
1567847515.9,286047002.2,N
1567847535.7,286047001.4,N
1567847555.6,286047004.3,Y
1567847575.4,286047001.8,P
1567847595.2,286047001.3,N
1567847615.1,286047003.0,P
1567847616.0,286047003.0,Y
1567847635.8,286047001.5,P
1567847655.7,286047002.2,P
1567847675.5,286046999.9,N
1567847695.3,286047000.1,N
1567847715.2,286046999.7,N
1567847735.0,286047001.4,N
1567847735.9,286047001.4,N
1567847755.8,286047001.7,N
1567847775.6,286047001.8,N
1567847795.4,286047002.5,N
1567847815.3,286046999.9,N
1567847835.1,286047000.2,N
1567847855.9,286047000.7,N
1567847875.7,286047000.3,N
1567847895.5,286047001.0,N
1567847915.4,286047000.1,N
1567847935.2,286046999.8,N
1567847955.0,286047001.0,N
1567847956.0,286047001.0,N
1567847975.8,286046998.6,N
1567847995.6,286047000.6,N
1567848015.5,286047001.0,N
1567848035.3,286047000.1,N
1567848055.1,286047001.0,N
1567848075.9,286047000.7,N
1567848095.7,286047000.9,N
1567848115.6,286046999.1,N
1567848135.4,286046998.8,N
1567848155.2,286046999.5,N
1567848175.1,286046997.0,Y
1567848176.0,286046997.0,P
1567848195.8,286046997.1,N
1567848215.7,286046996.8,N
1567848235.5,286046999.2,N
1567848255.3,286046997.3,N
1567848275.2,286046997.7,N
1567848295.0,286046998.0,N
1567848295.9,286046998.0,N
1567848315.8,286046997.8,N
1567848335.6,286046998.0,N
1567848355.4,286046997.7,N
1567848375.3,286046996.8,Y
1567848395.1,286046998.2,P
1567848415.9,286046998.2,P
1567848435.7,286046998.8,P
1567848455.5,286046999.4,N
1567848475.4,286046997.0,Y
1567848495.2,286047000.6,P
1567848515.1,286046999.9,N
1567848516.0,286046999.9,N
1567848535.8,286047000.4,N
1567848555.6,286047000.3,N
1567848575.5,286047000.4,N
1567848595.3,286047000.7,N
1567848615.1,286046998.7,N
1567848635.9,286047001.0,N
1567848655.7,286047001.1,N
1567848675.6,286047000.8,N
1567848695.4,286047001.2,N
1567848715.2,286047001.0,N
1567848735.1,286047000.8,N
1567848736.0,286047000.8,N
1567848755.8,286046998.6,N
1567848775.7,286047000.9,N
1567848795.5,286046998.4,N
1567848815.3,286046998.4,N
1567848835.2,286046999.5,N
1567848855.0,286046998.3,N
1567848855.9,286046998.3,N
1567848875.7,286046999.2,N
1567848895.6,286046999.2,N
1567848915.4,286046998.8,N
1567848935.3,286046998.1,N
1567848955.1,286046998.6,N
1567848975.8,286046998.9,N
1567848995.7,286046998.7,N
1567849015.5,286046998.8,N
1567849035.4,286046998.3,N
1567849055.2,286047000.9,N
1567849075.0,286047000.5,N
1567849075.9,286047000.5,N
1567849095.8,286046998.2,N
1567849115.6,286047000.5,N
1567849135.4,286047000.4,N
1567849155.3,286046998.5,N
1567849175.1,286047000.5,N
1567849195.9,286047000.9,N
1567849215.7,286047000.2,N
1567849235.5,286047000.9,N
1567849255.4,286047000.7,N
1567849275.2,286047000.9,N
1567849295.1,286046998.1,N
1567849296.0,286046998.1,N
1567849315.8,286047000.6,N
1567849335.6,286047001.2,N
1567849355.5,286047000.8,N
1567849375.3,286047000.6,N
1567849395.1,286047000.9,N
1567849415.9,286047000.4,N
1567849435.7,286047001.0,N
1567849455.6,286047000.5,N
1567849475.4,286047002.6,N
1567849495.2,286046999.8,N
1567849515.1,286046999.8,N
1567849516.0,286046999.8,N
1567849535.8,286047002.6,N
1567849555.7,286047002.3,N
1567849575.5,286046999.9,N
1567849595.3,286047000.1,N
1567849615.2,286047002.7,N
1567849635.0,286047002.2,N
1567849635.9,286047002.2,N
1567849655.8,286046999.7,N
1567849675.6,286047002.7,N
1567849695.4,286046999.7,N
1567849715.3,286046999.7,N
1567849735.1,286046999.8,N
1567849755.9,286047002.4,N
1567849775.7,286047000.4,N
1567849795.5,286047000.7,N
1567849815.4,286046998.1,N
1567849835.2,286047000.9,N
1567849855.0,286047001.0,N
1567849855.9,286047001.0,N
1567849875.8,286047000.5,N
1567849895.6,286046999.9,N
1567849915.5,286047002.7,N
1567849935.3,286047002.0,N
1567849955.1,286047001.6,N
1567849975.9,286047002.2,N
1567849995.7,286047002.2,N
1567850015.6,286047002.2,N
1567850035.4,286047002.4,N
1567850055.2,286046999.8,N
1567850075.1,286047002.6,N
1567850076.0,286047002.6,N
1567850095.8,286047002.0,N
1567850115.6,286047002.5,N
1567850135.5,286046999.9,N
1567850155.3,286047000.6,N
1567850175.2,286046999.7,N
1567850195.9,286047002.8,N
1567850215.7,286047000.2,N
1567850235.6,286047002.1,N
1567850255.4,286047002.0,N
1567850275.2,286047002.6,N
1567850295.1,286047002.2,N
1567850296.0,286047002.2,N
1567850315.8,286047001.7,N
1567850335.7,286047002.2,N
1567850355.5,286047002.0,N
1567850375.3,286047002.6,N
1567850395.2,286047002.2,N
